[[{"header":{"parameterUnit":"m.s-1","parameterCategory":1,"la1":30.2991,"la2":30.254,"lo1":-89.0895,"lo2":-89.0444,"dy":0.0017,"dx":0.0017,"nx":28,"ny":28,"refTime":"2023-11-23T03:00:00:Z","depth":0,"parameterNumber":2,"parameterNumberName":"U-component_of_WINDS"},"data":[0,0,0,0,0,0,0,0,0,0,0,0,0,0,0,0,0,0,0,0,0,0,0,0,0,0,0,0,0,0,0,0,0,0,0,0,0,0,0,0,0,0,0,0,0,0,0,0,0,0,0,0,0,0,0,0,0,0,-4.2016,-4.2016,0,-4.2016,-4.2016,-4.2016,-4.1881,-4.1878,-4.1874,-4.1871,-4.1871,-4.1875,-4.1878,0,0,0,0,0,0,0,0,0,0,0,0,0,-4.1903,-4.1905,-4.2016,-4.2016,-4.2016,-4.2016,-4.2016,-4.2016,-4.1882,-4.1878,-4.1873,-4.1869,-4.187,-4.1874,-4.1878,0,0,0,0,0,0,0,0,0,0,0,0,0,-4.1932,-4.1906,-4.2016,-4.195,-4.1944,-4.2016,-4.2016,-4.2016,-4.1883,-4.1877,-4.1872,-4.1867,-4.1869,-4.1874,-4.1879,-4.2015,0,0,-4.1894,-4.1896,0,0,0,0,0,0,0,0,-4.1931,-4.1936,-4.1959,-4.1954,-4.1948,-4.1943,-4.1975,-4.2015,-4.1884,-4.1906,-4.1871,-4.1865,-4.19,-4.1902,-4.1913,-4.2015,-4.2015,-4.1894,-4.1897,-4.1899,-4.1901,0,0,0,0,0,0,0,-4.1929,-4.1936,-4.2016,-4.196,-4.1953,-4.192,-4.1918,-4.1982,-4.1932,-4.1904,-4.1894,-4.1896,-4.1895,-4.1909,-4.1912,-4.2015,-4.1894,-4.1898,-4.1901,-4.1903,-4.2228,-4.2234,0,0,0,0,0,0,-4.1936,-4.1935,-4.2016,-4.2016,-4.1926,-4.1926,-4.1924,-4.195,-4.1931,-4.1923,-4.19,-4.1889,-4.1903,-4.1907,-4.1912,-4.207,-4.1899,-4.1904,-4.1907,-4.2223,-4.2229,-4.2236,0,0,0,0,0,0,-4.1934,-4.1944,-4.2016,-4.1973,-4.1979,-4.1934,-4.1964,-4.1953,-4.1966,-4.1929,-4.1919,-4.1923,-4.1899,-4.1905,-4.199,-4.2068,-4.1906,-4.1911,-4.2216,-4.2225,-4.2233,-4.2387,0,0,0,0,0,0,-4.1931,-4.1944,-4.1996,-4.1975,-4.1982,-4.2095,-4.1968,-4.1957,-4.1975,-4.1961,-4.1948,-4.194,-4.1895,-4.1983,-4.1995,-4.2072,-4.1914,-4.2209,-4.222,-4.223,-4.2375,-4.24,-4.2421,0,0,0,0,0,-4.1928,-4.204,-4.1999,-4.2009,-4.2045,-4.21,-4.2104,-4.2049,-4.1982,-4.2033,-4.2009,-4.1941,-4.2058,-4.1993,-4.2005,-4.2085,-4.2204,-4.2217,-4.2229,-4.2365,-4.2395,-4.2421,0,0,0,0,0,0,-4.2071,-4.2036,-4.199,-4.2099,-4.2103,-4.2077,-4.214,-4.2083,-4.2107,-4.2093,-4.2025,-4.2023,-4.2119,-4.211,-4.2039,-4.2215,-4.2118,-4.2134,-4.2218,-4.2246,-4.2269,-4.2269,-4.1919,0,0,0,0,0,-4.2115,-4.2162,-4.2129,-4.2228,-4.2232,-4.2186,-4.2208,-4.2165,-4.2167,-4.2168,-4.215,-4.2155,-4.2193,-4.2219,-4.2251,-4.2373,-4.2368,-4.2434,-4.2457,-4.2476,-4.249,-4.2554,-4.2582,-4.2277,-4.2277,-4.2277,0,0,-4.2207,-4.2194,-4.2227,-4.2256,-4.2255,-4.2305,-4.2189,-4.2246,-4.2283,-4.2177,-4.2256,-4.2244,-4.2244,-4.2349,-4.2394,-4.2344,-4.2574,-4.2492,-4.2508,-4.2512,-4.257,-4.2599,-4.2624,-4.2286,-4.2284,-4.2283,0,0,-4.24,-4.2395,-4.2476,-4.2477,-4.2476,-4.2444,-4.2464,-4.2447,-4.2434,-4.2512,-4.2434,-4.2477,-4.2543,-4.2546,-4.2557,-4.2752,-4.269,-4.2764,-4.2885,-4.2948,-4.2972,-4.2993,-4.3062,-4.3088,-4.2779,-4.2779,-4.2779,0,-4.2515,-4.2587,-4.2526,-4.2589,-4.2604,-4.251,-4.2592,-4.2596,-4.2606,-4.2619,-4.2563,-4.2644,-4.2638,-4.2741,-4.2789,-4.2801,-4.2821,-4.2765,-4.2973,-4.2994,-4.3012,-4.3078,-4.3104,-4.2788,-4.2787,-4.2786,-4.2785,0,-4.2727,-4.2779,-4.2845,-4.2856,-4.2879,-4.2951,-4.2902,-4.2932,-4.2888,-4.2862,-4.2943,-4.2933,-4.2961,-4.2983,-4.294,-4.308,-4.305,-4.2985,-4.2886,-4.3052,-4.3111,-4.3136,-4.2801,-4.2798,-4.2795,-4.2793,0,0,-4.301,-4.2987,-4.3013,-4.3016,-4.3008,-4.3047,-4.3115,-4.3143,-4.317,-4.318,-4.3236,-4.3294,-4.3234,-4.3246,-4.3203,-4.3258,-4.3413,-4.3186,-4.3185,-4.3229,-4.3566,-4.3615,-4.3645,-4.3372,-4.3376,-4.338,-4.3566,0,-4.3197,-4.3312,-4.3259,-4.338,-4.3426,-4.3338,-4.3397,-4.3399,-4.3378,-4.3414,-4.3389,-4.3432,-4.3349,-4.3356,-4.3407,-4.3383,-4.348,-4.3369,-4.3423,-4.3426,-4.3425,-4.3676,-4.3727,-4.3903,-4.3589,-4.3593,-4.3596,0,-4.343,-4.3449,-4.3575,-4.3558,-4.3575,-4.363,-4.3651,-4.3687,-4.3687,-4.3667,-4.3681,-4.3625,-4.3691,-4.3594,-4.3684,-4.361,-4.3629,-4.3621,-4.3626,-4.3629,-4.3521,-4.3685,-4.3958,-4.3984,-4.3632,-4.3629,-4.3627,0,-4.3623,-4.3681,-4.3763,-4.3769,-4.3752,-4.3792,-4.3787,-4.3782,-4.3802,-4.382,-4.3832,-4.3859,-4.3873,-4.3895,-4.3848,-4.3781,-4.3945,-4.3843,-4.393,-4.3931,-4.3968,-4.3966,-4.4248,-4.3982,-4.3981,-4.3981,-4.398,0,-4.3837,-4.3917,-4.385,-4.3901,-4.3988,-4.3927,-4.4015,-4.4,-4.3996,-4.4042,-4.3968,-4.4013,-4.3948,-4.3987,-4.3951,-4.4031,-4.4038,-4.4024,-4.4014,-4.4031,-4.4033,-4.4042,-4.4028,-4.3987,-4.3986,-4.3985,-4.3983,0,-4.4068,-4.4026,-4.411,-4.4086,-4.4082,-4.4148,-4.4127,-4.4173,-4.4146,-4.4206,-4.4216,-4.4174,-4.4216,-4.4172,-4.4211,-4.4186,-4.4294,-4.4265,-4.4294,-4.4285,-4.4375,-4.4367,-4.4671,-4.4708,-4.4419,-4.4422,-4.4425,0,-4.4206,-4.4266,-4.4249,-4.4274,-4.4273,-4.4315,-4.4335,-4.4277,-4.4301,-4.4306,-4.4351,-4.4387,-4.4412,-4.4483,-4.4456,-4.4486,-4.4457,-4.4562,-4.4461,-4.4477,-4.4458,-4.4455,-4.4461,-4.4583,-4.4586,-4.4589,-4.4591,0,-4.4457,-4.4433,-4.4464,-4.4489,-4.4514,-4.4531,-4.4542,-4.4567,-4.4507,-4.4537,-4.4579,-4.4599,-4.4638,-4.4675,-4.4696,-4.469,-4.4632,-4.4623,-4.4645,-4.4662,-4.4676,-4.4669,-4.4349,-4.4616,-4.4614,-4.4612,-4.4611,-4.461,-4.4645,-4.4694,-4.4689,-4.4727,-4.4728,-4.474,-4.4782,-4.476,-4.4794,-4.4821,-4.4785,-4.4837,-4.4835,-4.4858,-4.486,-4.4899,-4.4855,-4.4886,-4.4894,-4.4902,-4.4915,-4.4671,-4.4903,-4.4902,-4.4902,-4.4901,-4.49,0,-4.4891,-4.4884,-4.4919,-4.4936,-4.4966,-4.4907,-4.4916,-4.4944,-4.4991,-4.4994,-4.502,-4.5068,-4.5103,-4.5079,-4.5109,-4.5145,-4.5119,-4.5155,-4.5151,-4.5151,-4.4954,-4.4932,-4.5176,-4.5176,-4.5175,-4.5175,-4.5175,-4.5175,-4.5023,-4.5102,-4.5078,-4.5157,-4.5149,-4.5199,-4.5209,-4.5219,-4.5222,-4.5278,-4.5307,-4.5291,-4.5283,-4.5311,-4.5341,-4.5333,-4.5347,-4.5393,-4.5375,-4.5192,-4.5165,-4.5139,-4.5118,-4.5396,-4.5397,-4.5568,-4.557,-4.5571]},{"header":{"parameterUnit":"m.s-1","parameterCategory":1,"la1":30.2991,"la2":30.254,"lo1":-89.0895,"lo2":-89.0444,"dy":0.0017,"dx":0.0017,"nx":28,"ny":28,"refTime":"2023-11-23T03:00:00:Z","depth":0,"parameterNumber":3,"parameterNumberName":"V-component_of_WINDS"},"data":[0,0,0,0,0,0,0,0,0,0,0,0,0,0,0,0,0,0,0,0,0,0,0,0,0,0,0,0,0,0,0,0,0,0,0,0,0,0,0,0,0,0,0,0,0,0,0,0,0,0,0,0,0,0,0,0,0,0,-2.006,-2.006,0,-2.0074,-2.0074,-2.0074,-2.0041,-2.004,-2.0039,-2.0038,-2.0053,-2.0054,-2.0055,0,0,0,0,0,0,0,0,0,0,0,0,0,-2.0003,-2.0004,-2.006,-2.006,-2.006,-2.0074,-2.0074,-2.0074,-2.0041,-2.004,-2.0039,-2.0038,-2.0052,-2.0054,-2.0056,0,0,0,0,0,0,0,0,0,0,0,0,0,-2.0024,-2.0005,-2.006,-2.0045,-2.0044,-2.0074,-2.0074,-2.0074,-2.0042,-2.004,-2.0038,-2.0037,-2.0052,-2.0054,-2.0056,-2.01,0,0,-2.0062,-2.0063,0,0,0,0,0,0,0,0,-2.0022,-2.0026,-2.0047,-2.0046,-2.0045,-2.0054,-2.0059,-2.0083,-2.0042,-2.0043,-2.0038,-2.0036,-2.0055,-2.0056,-2.0062,-2.0101,-2.0101,-2.0062,-2.0064,-2.0064,-2.0065,0,0,0,0,0,0,0,-2.0021,-2.0025,-2.0065,-2.0047,-2.0046,-2.0038,-2.0039,-2.0064,-2.0057,-2.0042,-2.004,-2.0042,-2.0054,-2.0061,-2.0062,-2.0102,-2.0062,-2.0064,-2.0065,-2.0066,-2.0176,-2.0178,0,0,0,0,0,0,-2.0021,-2.0024,-2.0065,-2.0066,-2.003,-2.004,-2.0041,-2.0053,-2.0057,-2.0056,-2.0043,-2.0041,-2.0058,-2.006,-2.0063,-2.0114,-2.0064,-2.0066,-2.0068,-2.0174,-2.0176,-2.0178,0,0,0,0,0,0,-2.002,-2.0025,-2.0064,-2.0044,-2.0048,-2.0043,-2.0056,-2.0054,-2.0061,-2.0058,-2.0056,-2.0052,-2.0057,-2.006,-2.0091,-2.0114,-2.0067,-2.0069,-2.0172,-2.0175,-2.0177,-2.0218,0,0,0,0,0,0,-2.0019,-2.0025,-2.0042,-2.0045,-2.005,-2.0092,-2.0057,-2.0055,-2.0064,-2.0061,-2.0065,-2.0064,-2.0056,-2.0088,-2.0093,-2.0116,-2.0071,-2.017,-2.0173,-2.0176,-2.0215,-2.0222,-2.0228,0,0,0,0,0,-2.0017,-2.0054,-2.0043,-2.0049,-2.0071,-2.0094,-2.0097,-2.0086,-2.0066,-2.0083,-2.0081,-2.0064,-2.0111,-2.0091,-2.0097,-2.0121,-2.0169,-2.0173,-2.0176,-2.0212,-2.022,-2.0228,0,0,0,0,0,0,-2.0055,-2.0054,-2.0042,-2.0081,-2.0088,-2.0088,-2.0109,-2.0095,-2.0108,-2.0104,-2.009,-2.0091,-2.0125,-2.0126,-2.0104,-2.0164,-2.0136,-2.0141,-2.0162,-2.017,-2.0176,-2.0175,-2.0072,0,0,0,0,0,-2.0067,-2.0086,-2.0084,-2.0118,-2.0122,-2.0115,-2.0125,-2.0116,-2.0122,-2.0125,-2.0125,-2.0132,-2.0148,-2.0159,-2.0174,-2.0215,-2.0215,-2.0234,-2.024,-2.0246,-2.025,-2.0271,-2.028,-2.0191,-2.019,-2.019,0,0,-2.0094,-2.0096,-2.0109,-2.0126,-2.013,-2.015,-2.0118,-2.014,-2.0154,-2.0128,-2.0157,-2.0158,-2.0164,-2.02,-2.0216,-2.0202,-2.0275,-2.0251,-2.0255,-2.0257,-2.0276,-2.0284,-2.0292,-2.0193,-2.0193,-2.0192,0,0,-2.0152,-2.0156,-2.0184,-2.0189,-2.0195,-2.019,-2.0197,-2.0199,-2.0198,-2.0227,-2.0208,-2.0224,-2.0252,-2.0258,-2.0264,-2.0323,-2.0307,-2.0328,-2.0362,-2.0383,-2.039,-2.0396,-2.0417,-2.0424,-2.0332,-2.0333,-2.0333,0,-2.0185,-2.0213,-2.0201,-2.0224,-2.0232,-2.0208,-2.0237,-2.0242,-2.0253,-2.0259,-2.0243,-2.0277,-2.028,-2.0316,-2.0331,-2.0337,-2.0344,-2.0328,-2.039,-2.0396,-2.0402,-2.0421,-2.0429,-2.0335,-2.0335,-2.0334,-2.0334,0,-2.0252,-2.0272,-2.0295,-2.0305,-2.0316,-2.0341,-2.0332,-2.0344,-2.0334,-2.033,-2.0359,-2.0361,-2.0376,-2.0384,-2.0374,-2.0418,-2.041,-2.0392,-2.0365,-2.0413,-2.0431,-2.0438,-2.0338,-2.0338,-2.0337,-2.0336,0,0,-2.0336,-2.0338,-2.0347,-2.0351,-2.0355,-2.0371,-2.0395,-2.0408,-2.0419,-2.0427,-2.0446,-2.047,-2.0454,-2.0461,-2.0452,-2.047,-2.0515,-2.045,-2.045,-2.0462,-2.0563,-2.0577,-2.0585,-2.0505,-2.0506,-2.0507,-2.0563,0,-2.0393,-2.0435,-2.0423,-2.0465,-2.0483,-2.046,-2.0481,-2.0486,-2.0483,-2.0497,-2.0494,-2.0511,-2.0488,-2.0492,-2.0509,-2.0506,-2.0536,-2.0502,-2.0523,-2.0524,-2.0522,-2.0595,-2.0609,-2.0661,-2.057,-2.0571,-2.0572,0,-2.0466,-2.0476,-2.0519,-2.052,-2.0527,-2.0546,-2.0557,-2.0572,-2.0576,-2.0573,-2.058,-2.0567,-2.059,-2.0562,-2.0594,-2.0571,-2.0579,-2.0578,-2.058,-2.0582,-2.0551,-2.0598,-2.0678,-2.0686,-2.0583,-2.0582,-2.0581,0,-2.0522,-2.0547,-2.0575,-2.058,-2.0581,-2.0595,-2.0596,-2.06,-2.0608,-2.0618,-2.0623,-2.0635,-2.0642,-2.0652,-2.0642,-2.0622,-2.0675,-2.0646,-2.0672,-2.0672,-2.0685,-2.0684,-2.0766,-2.069,-2.0689,-2.0689,-2.0689,0,-2.0587,-2.0615,-2.06,-2.0618,-2.0648,-2.0634,-2.0663,-2.0662,-2.0665,-2.0681,-2.0663,-2.0679,-2.0665,-2.0679,-2.0672,-2.0699,-2.0702,-2.0699,-2.0697,-2.0701,-2.0701,-2.0706,-2.0702,-2.0691,-2.0691,-2.0691,-2.069,0,-2.0655,-2.0647,-2.0677,-2.0675,-2.0676,-2.0697,-2.0696,-2.0712,-2.0707,-2.0728,-2.0733,-2.0725,-2.0741,-2.0732,-2.0749,-2.0744,-2.0779,-2.0771,-2.0777,-2.0775,-2.0802,-2.0799,-2.089,-2.0901,-2.0817,-2.0818,-2.0819,0,-2.0698,-2.0718,-2.0719,-2.0728,-2.0731,-2.0747,-2.0755,-2.0742,-2.0751,-2.0757,-2.0773,-2.0787,-2.0798,-2.0825,-2.0821,-2.0833,-2.0826,-2.0857,-2.0828,-2.0831,-2.0826,-2.0825,-2.0827,-2.0863,-2.0864,-2.0865,-2.0865,0,-2.0774,-2.0768,-2.0781,-2.0792,-2.0802,-2.0811,-2.0817,-2.0826,-2.0813,-2.0824,-2.0841,-2.0849,-2.0865,-2.088,-2.089,-2.0891,-2.0876,-2.0874,-2.0881,-2.0885,-2.0888,-2.0886,-2.0793,-2.0872,-2.0872,-2.0871,-2.0871,-2.087,-2.083,-2.0846,-2.0849,-2.0864,-2.0867,-2.0873,-2.0888,-2.0884,-2.0898,-2.091,-2.0901,-2.092,-2.0923,-2.0935,-2.0938,-2.0953,-2.094,-2.095,-2.0952,-2.0955,-2.0959,-2.0885,-2.0955,-2.0954,-2.0954,-2.0954,-2.0954,0,-2.0904,-2.0905,-2.0918,-2.0928,-2.0939,-2.0923,-2.0929,-2.094,-2.0956,-2.096,-2.0971,-2.0989,-2.1003,-2.0999,-2.1011,-2.1024,-2.1017,-2.1027,-2.1026,-2.1027,-2.0969,-2.0962,-2.1032,-2.1032,-2.1032,-2.1032,-2.1032,-2.1032,-2.0945,-2.0971,-2.0966,-2.0994,-2.0994,-2.1012,-2.1017,-2.1022,-2.1026,-2.1046,-2.1057,-2.1055,-2.1056,-2.1067,-2.1079,-2.1078,-2.1083,-2.1096,-2.1092,-2.1038,-2.1031,-2.1023,-2.1017,-2.1097,-2.1097,-2.1148,-2.1149,-2.1149]}]]